Regional Weather Roundup
Issued by NWS

Home | Current Version | Previous Version | Graphics & Text | Print | Product List | Glossary On
Versions: 1 2 3 4 5 6 7 8 9 10 11 12 13 14 15 16 17 18 19 20 21 22 23 24 25 26 27
000
ASUS45 KBOU 231707
RWRCO

WEATHER ROUNDUP FOR COLORADO
NATIONAL WEATHER SERVICE DENVER/BOULDER CO
1100 AM MDT TUE AUG 23 2016

NOTE: "FAIR" INDICATES FEW OR NO CLOUDS BELOW 12000 FEET WITH NO
SIGNIFICANT WEATHER AND/OR OBSTRUCTIONS TO VISIBILITY.

COZ001>005-013-030-031-231800-
...NORTHWEST COLORADO...

CITY           SKY/WX    TMP DP  RH WIND       PRES   REMARKS
CRAIG          FAIR      73  40  30 NE6       30.22S
HAYDEN         FAIR      66  37  34 E5        30.24S
MEEKER         FAIR      66  46  48 CALM      30.25R
MOUNT WERNER   NOT AVBL
STEAMBOAT SPGS FAIR      66  40  38 E5        30.26S
WALDEN         FAIR      64  30  27 SW3       30.32R
$$

COZ006>008-011-231800-
...WEST CENTRAL VALLEYS...

CITY           SKY/WX    TMP DP  RH WIND       PRES   REMARKS
GRAND JUNCTION FAIR      70  47  43 S7        30.18R
MONTROSE       FAIR      65  46  50 W3        30.26R
EAGLE          SUNNY     64  45  48 CALM      30.29S
RIFLE          FAIR      65  49  56 CALM      30.23S
DELTA          FAIR      70  48  45 CALM      30.22S
NUCLA          CLOUDY    61  48  63 W3        30.29S
$$

COZ017>023-064>068-231800-
...SOUTHWEST COLORADO...

CITY           SKY/WX    TMP DP  RH WIND       PRES   REMARKS
DURANGO        FAIR      66  49  54 VRB3      30.29S
CORTEZ         FAIR      74  49  41 CALM      30.22S
PAGOSA SPRINGS FAIR      63  46  54 S3        30.36S
TELLURIDE      CLOUDY    60  43  53 CALM      30.42S
WOLF CREEK PAS CLOUDY    43  41  93 SW6       30.61R
$$

COZ009-010-012-014-032>034-037-058>063-231800-
...CENTRAL COLORADO...

CITY           SKY/WX    TMP DP  RH WIND       PRES   REMARKS
ASPEN          PTSUNNY   65  41  41 N8        30.32S
BUENA VISTA    PTSUNNY   65  36  34 S3        30.30S
COPPER MTN     CLOUDY    50  34  53 NW8       30.58R
BERTHOUD PASS  CLOUDY    37  27  65 N10G18    30.60R
COTTONWOOD PAS CLOUDY    63  36  36 E3        30.43R
GUNNISON       PTSUNNY   54  45  71 CALM      30.39S
KREMMLING      FAIR      61  37  41 CALM      30.32S
LEADVILLE        N/A    N/A N/A N/A MISG      30.43R
MONARCH PASS   CLOUDY    45  37  76 W13G22    30.66S
SALIDA         FAIR      71  40  32 SW9       30.34S
SUNLIGHT       CLOUDY    52  43  71 NE5       30.54R
WILKERSON PASS NOT AVBL
$$

COZ069>075-231800-
...SAN LUIS VALLEY/SANGRE DE CRISTO MOUNTAINS...

CITY           SKY/WX    TMP DP  RH WIND       PRES   REMARKS
ALAMOSA        FAIR      65  44  46 NE6       30.32S
LA VETA PASS   FAIR      57  41  54 SW7G16    30.44R
SAGUACHE       PTSUNNY   64  41  42 SW5       30.33F
$$

COZ035-036-038>040-231800-
...NORTHERN COLORADO FRONT RANGE...

CITY           SKY/WX    TMP DP  RH WIND       PRES   REMARKS
DENVER INTL AP PTSUNNY   83  35  18 NW5       30.06R
DMNS CITY PARK   N/A     84  36  18 N2        30.06S
AURORA         NOT AVBL
FRONT RANGE AP MOSUNNY   86  32  14 W7        30.08R
ERIE MUNI ARPT FAIR      84  33  16 S3        30.04R
BOULDER MUN AP FAIR      82  36  18 E5        30.05R
CENTENNIAL     PTSUNNY   80  33  18 CALM      30.10R
BROOMFIELD     PTSUNNY   82  32  16 S6        30.09R
FORT COLLINS   FAIR      82  39  21 S8        30.01S
LONGMONT       FAIR      85  33  15 S5        30.05R
$$

COZ041-046-047-076>085-087-088-231800-
...PIKES PEAK/PALMER DIVIDE AND SOUTHERN FOOTHILLS...

CITY           SKY/WX    TMP DP  RH WIND       PRES   REMARKS
COLO. SPRINGS  FAIR      83  34  17 NE8       30.14R
A. F. ACADEMY  SUNNY     78  35  20 NE5       30.15R
SCHRIEVER AFB  NOT AVBL
ELLICOTT       NOT AVBL
FALCON         FAIR      78  31  18 N5        30.20R
FORT CARSON    FAIR      81  38  21 CALM      30.10R
LIMON          FAIR      84  30  14 N17G25    30.07R
MONUMENT HILL  PTSUNNY   75  32  20 SE6       30.21S
TRINIDAD       FAIR      80  42  25 W8        30.11S
$$

COZ042>045-048>051-090-091-231800-
...NORTHEAST COLORADO...

CITY           SKY/WX    TMP DP  RH WIND       PRES   REMARKS
GREELEY ARPT   FAIR      73  52  46 SE3       30.03S
AKRON          FAIR      83  34  17 NW15G23   30.02R
BURLINGTON     FAIR      88  35  15 N18G28    29.96R
WRAY           NOT AVBL
STERLING       FAIR      86  34  15 N12       29.95S
HOLYOKE        FAIR      88  41  19 NW14G20   29.92S
FORT MORGAN    FAIR      81  38  21 W5        30.02R
$$

COZ086-089-092>099-231800-
...SOUTHEAST COLORADO...

CITY           SKY/WX    TMP DP  RH WIND       PRES   REMARKS
PUEBLO         FAIR      87  41  19 N8        30.02R
LA JUNTA       FAIR      86  47  25 W13       29.99R
LAMAR          FAIR      84  50  30 NW13      29.94R
SPRINGFIELD      N/A     85  47  26 W14G20    30.00S
$$




USA.gov is the U.S. government's official web portal to all federal, state and local government web resources and services.